| time (UTC) | temp C | wind direction | speed KPH | gust KPH | rain 1hr cm | rain 24hr cm | rain mn cm | humidity % | barometer mb |
| 20260901201157 | 17 | 233 | 8.0 | 16.1 | 0.00 | 0.00 | 0.00 | 70 | 1009.7 |
| 20260901200655 | 17 | 241 | 9.7 | 19.3 | 0.00 | 0.00 | 0.00 | 70 | 1009.7 |
| 20260901200139 | 17 | 227 | 12.9 | 22.5 | 0.00 | 0.00 | 0.00 | 70 | 1009.7 |
| 20260901195639 | 18 | 213 | 11.3 | 22.5 | 0.00 | 0.00 | 0.00 | 70 | 1009.7 |
| 20260901195135 | 18 | 213 | 8.0 | 17.7 | 0.00 | 0.00 | 0.00 | 68 | 1009.7 |
| 20260901194626 | 18 | 236 | 8.0 | 17.7 | 0.00 | 0.00 | 0.00 | 67 | 1009.7 |
| 20260901194427 | 18 | 264 | 8.0 | 16.1 | 0.00 | 0.00 | 0.00 | 67 | 1009.7 |
| 20260901193612 | 18 | 235 | 8.0 | 20.9 | 0.00 | 0.00 | 0.00 | 67 | 1009.7 |
| 20260901193115 | 18 | 209 | 6.4 | 20.9 | 0.00 | 0.00 | 0.00 | 66 | 1009.7 |
| 20260901192614 | 18 | 199 | 8.0 | 19.3 | 0.00 | 0.00 | 0.00 | 67 | 1009.7 |
| 20260901192201 | 18 | 264 | 9.7 | 19.3 | 0.00 | 0.00 | 0.00 | 67 | 1009.7 |
| 20260901191111 | 18 | 235 | 11.3 | 25.7 | 0.00 | 0.00 | 0.00 | 66 | 1009.7 |
| 20260901190611 | 18 | 238 | 9.7 | 25.7 | 0.00 | 0.00 | 0.00 | 66 | 1009.7 |
| 20260901190106 | 18 | 226 | 8.0 | 22.5 | 0.00 | 0.00 | 0.00 | 66 | 1009.7 |
| 20260901185607 | 18 | 225 | 8.0 | 22.5 | 0.00 | 0.00 | 0.00 | 68 | 1009.7 |
| 20260901185105 | 18 | 171 | 9.7 | 25.7 | 0.00 | 0.00 | 0.00 | 67 | 1009.7 |
| 20260901184606 | 18 | 244 | 11.3 | 25.7 | 0.00 | 0.00 | 0.00 | 66 | 1009.7 |
| 20260901184105 | 18 | 206 | 9.7 | 22.5 | 0.00 | 0.00 | 0.00 | 66 | 1009.7 |
| 20260901183604 | 18 | 171 | 6.4 | 16.1 | 0.00 | 0.00 | 0.00 | 67 | 1009.7 |
| 20260901183106 | 18 | 227 | 6.4 | 16.1 | 0.00 | 0.00 | 0.00 | 66 | 1009.7 |
| 20260901182905 | 18 | 248 | 8.0 | 16.1 | 0.00 | 0.00 | 0.00 | 68 | 1009.7 |
| 20260901182107 | 18 | 235 | 8.0 | 16.1 | 0.00 | 0.00 | 0.00 | 68 | 1009.7 |
| 20260901181606 | 18 | 248 | 8.0 | 16.1 | 0.00 | 0.00 | 0.00 | 67 | 1009.7 |
| 20260901181105 | 18 | 246 | 8.0 | 17.7 | 0.00 | 0.00 | 0.00 | 67 | 1009.5 |
| 20260901180600 | 18 | 226 | 9.7 | 20.9 | 0.00 | 0.00 | 0.00 | 68 | 1009.5 |
| 20260901180321 | 18 | 226 | 9.7 | 20.9 | 0.00 | 0.00 | 0.00 | 68 | 1009.5 |
| 20260901180058 | 18 | 226 | 9.7 | 20.9 | 0.00 | 0.00 | 0.00 | 68 | 1009.5 |
| 20260901175547 | 18 | 182 | 6.4 | 16.1 | 0.00 | 0.00 | 0.00 | 68 | 1009.4 |
| 20260901175046 | 18 | 219 | 6.4 | 14.5 | 0.00 | 0.00 | 0.00 | 68 | 1009.4 |
| 20260901174542 | 18 | 196 | 8.0 | 14.5 | 0.00 | 0.00 | 0.00 | 69 | 1009.4 |
| 20260901174042 | 17 | 162 | 8.0 | 19.3 | 0.00 | 0.00 | 0.00 | 70 | 1009.5 |
| 20260901173837 | 17 | 170 | 9.7 | 19.3 | 0.00 | 0.00 | 0.00 | 71 | 1009.5 |
| 20260901173301 | 17 | 219 | 9.7 | 17.7 | 0.00 | 0.00 | 0.00 | 70 | 1009.5 |
| 20260901173038 | 17 | 219 | 9.7 | 17.7 | 0.00 | 0.00 | 0.00 | 70 | 1009.5 |
| 20260901172536 | 17 | 192 | 8.0 | 17.7 | 0.00 | 0.00 | 0.00 | 71 | 1009.5 |
| 20260901172033 | 17 | 185 | 8.0 | 19.3 | 0.00 | 0.00 | 0.00 | 72 | 1009.5 |
| 20260901171534 | 17 | 213 | 8.0 | 19.3 | 0.00 | 0.00 | 0.00 | 71 | 1009.5 |
| 20260901171033 | 17 | 229 | 9.7 | 17.7 | 0.00 | 0.00 | 0.00 | 72 | 1009.3 |
| 20260901170800 | 17 | 235 | 9.7 | 19.3 | 0.00 | 0.00 | 0.00 | 71 | 1009.3 |
| 20260901170037 | 17 | 226 | 8.0 | 19.3 | 0.00 | 0.00 | 0.00 | 70 | 1009.3 |
| 20260901165837 | 17 | 186 | 8.0 | 24.1 | 0.00 | 0.00 | 0.00 | 70 | 1009.4 |
| 20260901165031 | 17 | 217 | 8.0 | 24.1 | 0.00 | 0.00 | 0.00 | 71 | 1009.4 |
| 20260901164833 | 17 | 181 | 9.7 | 19.3 | 0.00 | 0.00 | 0.00 | 72 | 1009.4 |
| 20260901164037 | 17 | 199 | 8.0 | 19.3 | 0.00 | 0.00 | 0.00 | 72 | 1009.4 |
| 20260901163529 | 17 | 169 | 8.0 | 16.1 | 0.00 | 0.00 | 0.00 | 72 | 1009.4 |
| 20260901163029 | 17 | 197 | 9.7 | 16.1 | 0.00 | 0.00 | 0.00 | 73 | 1009.4 |
| 20260901162837 | 17 | 152 | 9.7 | 16.1 | 0.00 | 0.00 | 0.00 | 73 | 1009.5 |
| 20260901162328 | 17 | 221 | 9.7 | 19.3 | 0.00 | 0.00 | 0.00 | 73 | 1009.5 |
| 20260901161529 | 17 | 227 | 8.0 | 19.3 | 0.00 | 0.00 | 0.00 | 72 | 1009.5 |
| 20260901161019 | 17 | 222 | 8.0 | 16.1 | 0.00 | 0.00 | 0.00 | 73 | 1009.6 |
| 20260901160513 | 17 | 238 | 9.7 | 20.9 | 0.00 | 0.00 | 0.00 | 73 | 1009.6 |
| 20260901160007 | 17 | 254 | 9.7 | 20.9 | 0.00 | 0.00 | 0.00 | 73 | 1009.6 |
| 20260901155501 | 17 | 257 | 6.4 | 17.7 | 0.00 | 0.00 | 0.00 | 74 | 1009.6 |
| 20260901154956 | 17 | 269 | 6.4 | 12.9 | 0.00 | 0.00 | 0.00 | 75 | 1009.6 |
| 20260901154453 | 16 | 250 | 8.0 | 12.9 | 0.00 | 0.00 | 0.00 | 76 | 1009.6 |
| 20260901153946 | 16 | 207 | 8.0 | 12.9 | 0.00 | 0.00 | 0.00 | 77 | 1009.7 |
| 20260901153437 | 16 | 227 | 8.0 | 19.3 | 0.00 | 0.00 | 0.00 | 77 | 1009.7 |
| 20260901152931 | 16 | 174 | 6.4 | 16.1 | 0.00 | 0.00 | 0.00 | 79 | 1009.7 |
| 20260901152431 | 16 | 207 | 4.8 | 11.3 | 0.00 | 0.00 | 0.00 | 80 | 1009.7 |
| 20260901151930 | 15 | 191 | 1.6 | 6.4 | 0.00 | 0.00 | 0.00 | 82 | 1009.7 |
| 20260901151435 | 15 | 111 | 1.6 | 4.8 | 0.00 | 0.00 | 0.00 | 83 | 1009.7 |
| 20260901150907 | 15 | 59 | 1.6 | 3.2 | 0.00 | 0.00 | 0.00 | 84 | 1009.7 |
| 20260901150401 | 15 | 13 | 1.6 | 4.8 | 0.00 | 0.00 | 0.00 | 85 | 1009.7 |
| 20260901145859 | 14 | 42 | 1.6 | 4.8 | 0.00 | 0.00 | 0.00 | 86 | 1009.7 |
| 20260901145345 | 14 | 48 | 1.6 | 3.2 | 0.00 | 0.00 | 0.00 | 86 | 1009.6 |
| 20260901144848 | 14 | 136 | 1.6 | 1.6 | 0.00 | 0.00 | 0.00 | 86 | 1009.6 |
| 20260901144625 | 13 | 136 | 1.6 | 1.6 | 0.00 | 0.00 | 0.00 | 86 | 1009.6 |
| 20260901144323 | 13 | 136 | 0.0 | 1.6 | 0.00 | 0.00 | 0.00 | 87 | 1009.5 |
| 20260901143332 | 13 | 202 | 1.6 | 3.2 | 0.00 | 0.00 | 0.00 | 87 | 1009.5 |
| 20260901142831 | 13 | 202 | 1.6 | 4.8 | 0.00 | 0.00 | 0.00 | 87 | 1009.5 |
| 20260901142629 | 13 | 198 | 3.2 | 4.8 | 0.00 | 0.00 | 0.00 | 87 | 1009.6 |
| 20260901142232 | 13 | 225 | 3.2 | 4.8 | 0.00 | 0.00 | 0.00 | 87 | 1009.6 |
| 20260901141334 | 13 | 187 | 3.2 | 6.4 | 0.00 | 0.00 | 0.00 | 87 | 1009.6 |
| 20260901140837 | 13 | 186 | 3.2 | 6.4 | 0.00 | 0.00 | 0.00 | 87 | 1009.4 |
| 20260901140651 | 13 | 211 | 3.2 | 6.4 | 0.00 | 0.00 | 0.00 | 87 | 1009.4 |
| 20260901135843 | 13 | 266 | 3.2 | 6.4 | 0.00 | 0.00 | 0.00 | 87 | 1009.4 |
| 20260901135327 | 13 | 245 | 3.2 | 8.0 | 0.00 | 0.00 | 0.00 | 87 | 1009.3 |
| 20260901134826 | 13 | 221 | 3.2 | 8.0 | 0.00 | 0.00 | 0.00 | 87 | 1009.3 |
| 20260901134322 | 13 | 225 | 3.2 | 6.4 | 0.00 | 0.00 | 0.00 | 87 | 1009.3 |
| 20260901133824 | 13 | 243 | 3.2 | 6.4 | 0.00 | 0.00 | 0.00 | 87 | 1009.3 |
| 20260901133319 | 13 | 236 | 3.2 | 8.0 | 0.00 | 0.00 | 0.00 | 87 | 1009.3 |
| 20260901132927 | 13 | 201 | 4.8 | 8.0 | 0.00 | 0.00 | 0.00 | 87 | 1009.3 |
| 20260901131811 | 13 | 221 | 1.6 | 6.4 | 0.00 | 0.00 | 0.00 | 86 | 1009.3 |
| 20260901131309 | 13 | 247 | 3.2 | 8.0 | 0.00 | 0.00 | 0.00 | 86 | 1009.3 |
| 20260901130809 | 13 | 229 | 3.2 | 8.0 | 0.00 | 0.00 | 0.00 | 86 | 1009.4 |
| 20260901130304 | 13 | 238 | 3.2 | 8.0 | 0.00 | 0.00 | 0.00 | 86 | 1009.4 |
| 20260901130123 | 13 | 269 | 3.2 | 4.8 | 0.00 | 0.00 | 0.00 | 86 | 1009.4 |
| 20260901125309 | 13 | 246 | 1.6 | 3.2 | 0.00 | 0.00 | 0.00 | 85 | 1009.2 |
| 20260901124808 | 13 | 269 | 1.6 | 3.2 | 0.00 | 0.00 | 0.00 | 85 | 1009.2 |
| 20260901124309 | 13 | 248 | 1.6 | 3.2 | 0.00 | 0.00 | 0.00 | 85 | 1009.2 |
| 20260901123801 | 13 | 204 | 1.6 | 3.2 | 0.00 | 0.00 | 0.00 | 85 | 1009.2 |
| 20260901123620 | 13 | 220 | 3.2 | 6.4 | 0.00 | 0.00 | 0.00 | 85 | 1009.2 |
| 20260901122803 | 13 | 233 | 3.2 | 6.4 | 0.00 | 0.00 | 0.00 | 85 | 1009.2 |
| 20260901122307 | 13 | 220 | 1.6 | 4.8 | 0.00 | 0.00 | 0.00 | 85 | 1009.2 |
| 20260901121809 | 13 | 243 | 1.6 | 4.8 | 0.00 | 0.00 | 0.00 | 84 | 1009.2 |
| 20260901121304 | 13 | 224 | 1.6 | 3.2 | 0.00 | 0.00 | 0.00 | 84 | 1009.2 |
| 20260901120803 | 13 | 209 | 1.6 | 3.2 | 0.00 | 0.00 | 0.00 | 84 | 1009.1 |
| 20260901120302 | 13 | 246 | 1.6 | 4.8 | 0.00 | 0.00 | 0.00 | 84 | 1009.1 |
| 20260901115805 | 13 | 240 | 1.6 | 4.8 | 0.00 | 0.00 | 0.00 | 83 | 1009.1 |
| 20260901115308 | 13 | 182 | 1.6 | 3.2 | 0.00 | 0.00 | 0.00 | 83 | 1009.1 |
| 20260901114803 | 13 | 182 | 1.6 | 4.8 | 0.00 | 0.00 | 0.00 | 84 | 1009.1 |
| 20260901114537 | 13 | 219 | 1.6 | 4.8 | 0.00 | 0.00 | 0.00 | 84 | 1009.1 |
| 20260901113808 | 13 | 179 | 1.6 | 3.2 | 0.00 | 0.00 | 0.00 | 84 | 1009.0 |
| 20260901113315 | 13 | 269 | 1.6 | 1.6 | 0.00 | 0.00 | 0.00 | 84 | 1009.0 |
| 20260901112812 | 13 | 269 | 0.0 | 1.6 | 0.00 | 0.00 | 0.00 | 84 | 1009.0 |
| 20260901112256 | 13 | 269 | 0.0 | 1.6 | 0.00 | 0.00 | 0.00 | 84 | 1008.9 |
| 20260901111744 | 13 | 269 | 0.0 | 1.6 | 0.00 | 0.00 | 0.00 | 83 | 1008.9 |
| 20260901111246 | 13 | 269 | 0.0 | 0.0 | 0.00 | 0.00 | 0.00 | 83 | 1008.9 |
| 20260901111156 | 13 | 269 | 0.0 | 0.0 | 0.00 | 0.00 | 0.00 | 83 | 1008.7 |
| 20260901105735 | 13 | 269 | 0.0 | 1.6 | 0.00 | 0.00 | 0.00 | 82 | 1008.7 |
| 20260901105208 | 13 | 269 | 0.0 | 1.6 | 0.00 | 0.00 | 0.00 | 82 | 1008.7 |
| 20260901104950 | 13 | 269 | 1.6 | 3.2 | 0.00 | 0.00 | 0.00 | 82 | 1008.7 |
| 20260901104201 | 13 | 269 | 1.6 | 3.2 | 0.00 | 0.00 | 0.00 | 82 | 1008.7 |
| 20260901103705 | 13 | 225 | 1.6 | 3.2 | 0.00 | 0.00 | 0.00 | 82 | 1008.7 |
| 20260901103201 | 13 | 226 | 1.6 | 4.8 | 0.00 | 0.00 | 0.00 | 82 | 1008.7 |
| 20260901102703 | 13 | 204 | 1.6 | 4.8 | 0.00 | 0.00 | 0.00 | 82 | 1008.7 |
| 20260901102202 | 13 | 234 | 1.6 | 3.2 | 0.00 | 0.00 | 0.00 | 81 | 1008.6 |
| 20260901101702 | 14 | 234 | 1.6 | 4.8 | 0.00 | 0.00 | 0.00 | 81 | 1008.6 |
| 20260901101202 | 14 | 238 | 1.6 | 4.8 | 0.00 | 0.00 | 0.00 | 81 | 1008.6 |
| 20260901100714 | 14 | 244 | 0.0 | 3.2 | 0.00 | 0.00 | 0.00 | 81 | 1008.4 |
| 20260901100159 | 14 | 242 | 1.6 | 1.6 | 0.00 | 0.00 | 0.00 | 80 | 1008.4 |
| 20260901095634 | 14 | 242 | 0.0 | 1.6 | 0.00 | 0.00 | 0.00 | 80 | 1008.2 |
| 20260901095145 | 14 | 242 | 0.0 | 1.6 | 0.00 | 0.00 | 0.00 | 80 | 1008.2 |
| 20260901094631 | 14 | 242 | 1.6 | 3.2 | 0.00 | 0.00 | 0.00 | 80 | 1008.2 |
| 20260901094415 | 14 | 242 | 1.6 | 3.2 | 0.00 | 0.00 | 0.00 | 80 | 1008.3 |
| 20260901093629 | 14 | 242 | 1.6 | 3.2 | 0.00 | 0.00 | 0.00 | 80 | 1008.3 |
| 20260901093138 | 14 | 242 | 0.0 | 1.6 | 0.00 | 0.00 | 0.00 | 80 | 1008.3 |
| 20260901092633 | 14 | 242 | 0.0 | 1.6 | 0.00 | 0.00 | 0.00 | 79 | 1008.3 |
| 20260901092135 | 15 | 245 | 1.6 | 3.2 | 0.00 | 0.00 | 0.00 | 78 | 1008.3 |
| 20260901091637 | 15 | 245 | 1.6 | 3.2 | 0.00 | 0.00 | 0.00 | 78 | 1008.3 |
| 20260901091427 | 15 | 227 | 1.6 | 3.2 | 0.00 | 0.00 | 0.00 | 78 | 1008.5 |
| 20260901090622 | 15 | 243 | 3.2 | 6.4 | 0.00 | 0.00 | 0.00 | 78 | 1008.5 |
| 20260901090121 | 15 | 220 | 3.2 | 6.4 | 0.00 | 0.00 | 0.00 | 78 | 1008.5 |
| 20260901085620 | 15 | 244 | 1.6 | 4.8 | 0.00 | 0.00 | 0.00 | 79 | 1008.5 |
| 20260901085117 | 15 | 245 | 1.6 | 3.2 | 0.00 | 0.00 | 0.00 | 79 | 1008.5 |
| 20260901084619 | 15 | 226 | 0.0 | 3.2 | 0.00 | 0.00 | 0.00 | 79 | 1008.5 |
| 20260901084415 | 15 | 140 | 0.0 | 3.2 | 0.00 | 0.00 | 0.00 | 78 | 1008.2 |
| 20260901083618 | 15 | 136 | 0.0 | 3.2 | 0.00 | 0.00 | 0.00 | 78 | 1008.2 |
| 20260901083105 | 15 | 29 | 0.0 | 0.0 | 0.00 | 0.00 | 0.00 | 76 | 1008.2 |
| 20260901082558 | 15 | 29 | 0.0 | 1.6 | 0.00 | 0.00 | 0.00 | 76 | 1008.2 |
| 20260901082044 | 15 | 29 | 0.0 | 1.6 | 0.00 | 0.00 | 0.00 | 77 | 1008.2 |
| 20260901081539 | 15 | 29 | 0.0 | 1.6 | 0.00 | 0.00 | 0.00 | 77 | 1008.2 |
| 20260901081037 | 15 | 29 | 0.0 | 1.6 | 0.00 | 0.00 | 0.00 | 76 | 1008.2 |
| 20260901080537 | 15 | 29 | 0.0 | 1.6 | 0.00 | 0.00 | 0.00 | 75 | 1008.2 |
| 20260901080037 | 15 | 29 | 0.0 | 1.6 | 0.00 | 0.00 | 0.00 | 75 | 1008.2 |
| 20260901075550 | 15 | 29 | 1.6 | 3.2 | 0.00 | 0.00 | 0.00 | 74 | 1008.1 |
| 20260901075032 | 15 | 29 | 1.6 | 3.2 | 0.00 | 0.00 | 0.00 | 76 | 1008.1 |
| 20260901074533 | 15 | 29 | 1.6 | 3.2 | 0.00 | 0.00 | 0.00 | 74 | 1008.1 |
| 20260901074035 | 15 | 273 | 1.6 | 1.6 | 0.00 | 0.00 | 0.00 | 74 | 1008.1 |
| 20260901073516 | 16 | 225 | 1.6 | 1.6 | 0.00 | 0.00 | 0.00 | 76 | 1008.1 |
| 20260901073014 | 16 | 225 | 0.0 | 1.6 | 0.00 | 0.00 | 0.00 | 73 | 1008.1 |
| 20260901072519 | 16 | 207 | 0.0 | 3.2 | 0.00 | 0.00 | 0.00 | 73 | 1008.1 |
| 20260901072330 | 16 | 207 | 0.0 | 3.2 | 0.00 | 0.00 | 0.00 | 73 | 1008.1 |
| 20260901071013 | 16 | 213 | 1.6 | 4.8 | 0.00 | 0.00 | 0.00 | 71 | 1007.8 |
| 20260901070512 | 16 | 359 | 1.6 | 3.2 | 0.00 | 0.00 | 0.00 | 71 | 1007.8 |
| 20260901070009 | 16 | 359 | 1.6 | 3.2 | 0.00 | 0.00 | 0.00 | 71 | 1007.8 |
| 20260901065506 | 16 | 359 | 1.6 | 3.2 | 0.00 | 0.00 | 0.00 | 72 | 1007.7 |
| 20260901065113 | 16 | 359 | 0.0 | 1.6 | 0.00 | 0.00 | 0.00 | 72 | 1007.7 |
| 20260901063951 | 16 | 359 | 0.0 | 0.0 | 0.00 | 0.00 | 0.00 | 70 | 1007.7 |
| 20260901063433 | 16 | 359 | 0.0 | 1.6 | 0.00 | 0.00 | 0.00 | 71 | 1007.7 |
| 20260901063234 | 16 | 359 | 1.6 | 1.6 | 0.00 | 0.00 | 0.00 | 71 | 1007.7 |
| 20260901062411 | 16 | 359 | 1.6 | 3.2 | 0.00 | 0.00 | 0.00 | 69 | 1007.7 |
| 20260901061910 | 16 | 359 | 1.6 | 3.2 | 0.00 | 0.00 | 0.00 | 68 | 1007.7 |
| 20260901061403 | 16 | 359 | 3.2 | 4.8 | 0.00 | 0.00 | 0.00 | 70 | 1007.7 |
| 20260901060904 | 16 | 359 | 3.2 | 4.8 | 0.00 | 0.00 | 0.00 | 68 | 1007.7 |
| 20260901060401 | 17 | 13 | 3.2 | 4.8 | 0.00 | 0.00 | 0.00 | 71 | 1007.7 |
| 20260901055902 | 17 | 13 | 1.6 | 4.8 | 0.00 | 0.00 | 0.00 | 70 | 1007.7 |
| 20260901055409 | 17 | 9 | 1.6 | 3.2 | 0.00 | 0.00 | 0.00 | 69 | 1007.8 |
| 20260901054905 | 17 | 359 | 1.6 | 3.2 | 0.00 | 0.00 | 0.00 | 68 | 1007.8 |
| 20260901054339 | 18 | 331 | 1.6 | 3.2 | 0.00 | 0.00 | 0.00 | 65 | 1007.8 |
| 20260901053833 | 18 | 331 | 0.0 | 3.2 | 0.00 | 0.00 | 0.00 | 64 | 1007.8 |
| 20260901053338 | 18 | 331 | 0.0 | 1.6 | 0.00 | 0.00 | 0.00 | 64 | 1007.8 |
| 20260901053051 | 18 | 331 | 1.6 | 3.2 | 0.00 | 0.00 | 0.00 | 62 | 1007.8 |
| 20260901052335 | 18 | 331 | 3.2 | 4.8 | 0.00 | 0.00 | 0.00 | 61 | 1007.8 |
| 20260901051833 | 18 | 331 | 4.8 | 6.4 | 0.00 | 0.00 | 0.00 | 61 | 1007.8 |
| 20260901051610 | 18 | 330 | 4.8 | 6.4 | 0.00 | 0.00 | 0.00 | 62 | 1007.8 |
| 20260901051102 | 18 | 337 | 4.8 | 6.4 | 0.00 | 0.00 | 0.00 | 64 | 1007.8 |
| 20260901050253 | 18 | 359 | 4.8 | 6.4 | 0.00 | 0.00 | 0.00 | 64 | 1007.8 |
| 20260901050114 | 18 | 20 | 4.8 | 6.4 | 0.00 | 0.00 | 0.00 | 60 | 1007.8 |
| 20260901045256 | 19 | 32 | 4.8 | 8.0 | 0.00 | 0.00 | 0.00 | 62 | 1007.8 |
| 20260901045054 | 19 | 27 | 4.8 | 8.0 | 0.00 | 0.00 | 0.00 | 59 | 1007.8 |
| 20260901044535 | 19 | 36 | 4.8 | 8.0 | 0.00 | 0.00 | 0.00 | 59 | 1007.8 |
| 20260901043740 | 19 | 24 | 6.4 | 11.3 | 0.00 | 0.00 | 0.00 | 59 | 1007.6 |
| 20260901043238 | 20 | 4 | 6.4 | 11.3 | 0.00 | 0.00 | 0.00 | 59 | 1007.6 |
| 20260901042737 | 20 | 24 | 8.0 | 14.5 | 0.00 | 0.00 | 0.00 | 57 | 1007.6 |
| 20260901042235 | 20 | 15 | 8.0 | 14.5 | 0.00 | 0.00 | 0.00 | 56 | 1007.6 |
| 20260901041738 | 20 | 21 | 8.0 | 14.5 | 0.00 | 0.00 | 0.00 | 57 | 1007.6 |
| 20260901041547 | 20 | 32 | 6.4 | 9.7 | 0.00 | 0.00 | 0.00 | 56 | 1007.6 |
| 20260901041102 | 20 | 16 | 4.8 | 9.7 | 0.00 | 0.00 | 0.00 | 55 | 1007.6 |
| 20260901040235 | 20 | 27 | 4.8 | 8.0 | 0.00 | 0.00 | 0.00 | 58 | 1007.6 |
| 20260901035739 | 20 | 29 | 4.8 | 9.7 | 0.00 | 0.00 | 0.00 | 55 | 1007.6 |
| 20260901035232 | 20 | 353 | 6.4 | 9.7 | 0.00 | 0.00 | 0.00 | 53 | 1007.3 |
| 20260901034733 | 20 | 346 | 6.4 | 9.7 | 0.00 | 0.00 | 0.00 | 53 | 1007.3 |
| 20260901034234 | 20 | 38 | 6.4 | 9.7 | 0.00 | 0.00 | 0.00 | 55 | 1007.3 |
| 20260901033729 | 20 | 350 | 4.8 | 8.0 | 0.00 | 0.00 | 0.00 | 54 | 1007.1 |
| 20260901033224 | 21 | 344 | 4.8 | 6.4 | 0.00 | 0.00 | 0.00 | 55 | 1007.1 |
| 20260901032725 | 21 | 359 | 3.2 | 6.4 | 0.00 | 0.00 | 0.00 | 54 | 1007.1 |
| 20260901032226 | 21 | 354 | 3.2 | 6.4 | 0.00 | 0.00 | 0.00 | 53 | 1007.1 |
| 20260901031720 | 21 | 352 | 4.8 | 9.7 | 0.00 | 0.00 | 0.00 | 53 | 1007.1 |
| 20260901031217 | 21 | 348 | 4.8 | 9.7 | 0.00 | 0.00 | 0.00 | 52 | 1007.1 |
| 20260901030717 | 21 | 359 | 4.8 | 9.7 | 0.00 | 0.00 | 0.00 | 50 | 1006.8 |
| 20260901030223 | 22 | 33 | 6.4 | 9.7 | 0.00 | 0.00 | 0.00 | 49 | 1006.8 |
| 20260901025718 | 22 | 30 | 6.4 | 9.7 | 0.00 | 0.00 | 0.00 | 49 | 1006.8 |
| 20260901025211 | 22 | 70 | 6.4 | 9.7 | 0.00 | 0.00 | 0.00 | 49 | 1006.7 |
| 20260901024711 | 22 | 16 | 6.4 | 11.3 | 0.00 | 0.00 | 0.00 | 48 | 1006.7 |
| 20260901024220 | 22 | 18 | 6.4 | 11.3 | 0.00 | 0.00 | 0.00 | 47 | 1006.7 |
| 20260901023710 | 23 | 42 | 6.4 | 11.3 | 0.00 | 0.00 | 0.00 | 47 | 1006.6 |
| 20260901023202 | 23 | 24 | 8.0 | 12.9 | 0.00 | 0.00 | 0.00 | 46 | 1006.6 |
| 20260901023013 | 23 | 47 | 8.0 | 12.9 | 0.00 | 0.00 | 0.00 | 45 | 1006.6 |
| 20260901022203 | 23 | 63 | 6.4 | 11.3 | 0.00 | 0.00 | 0.00 | 44 | 1006.7 |
| 20260901021705 | 23 | 34 | 6.4 | 9.7 | 0.00 | 0.00 | 0.00 | 44 | 1006.7 |
| 20260901021545 | 23 | 50 | 6.4 | 14.5 | 0.00 | 0.00 | 0.00 | 44 | 1006.7 |
| 20260901020701 | 24 | 62 | 6.4 | 14.5 | 0.00 | 0.00 | 0.00 | 44 | 1006.7 |
| 20260901020516 | 24 | 46 | 8.0 | 14.5 | 0.00 | 0.00 | 0.00 | 43 | 1006.7 |
| 20260901015648 | 24 | 79 | 6.4 | 14.5 | 0.00 | 0.00 | 0.00 | 39 | 1006.7 |
| 20260901015517 | 24 | 45 | 4.8 | 9.7 | 0.00 | 0.00 | 0.00 | 43 | 1006.9 |
| 20260901014645 | 24 | 34 | 6.4 | 12.9 | 0.00 | 0.00 | 0.00 | 42 | 1006.9 |
| 20260901014140 | 24 | 67 | 6.4 | 12.9 | 0.00 | 0.00 | 0.00 | 42 | 1007.0 |
| 20260901013640 | 24 | 65 | 8.0 | 14.5 | 0.00 | 0.00 | 0.00 | 42 | 1007.0 |
| 20260901013140 | 24 | 74 | 8.0 | 16.1 | 0.00 | 0.00 | 0.00 | 41 | 1007.0 |
| 20260901012644 | 24 | 70 | 8.0 | 16.1 | 0.00 | 0.00 | 0.00 | 41 | 1007.1 |
| 20260901012138 | 25 | 83 | 8.0 | 14.5 | 0.00 | 0.00 | 0.00 | 41 | 1007.1 |
| 20260901011634 | 25 | 90 | 6.4 | 11.3 | 0.00 | 0.00 | 0.00 | 41 | 1007.1 |
| 20260901011134 | 25 | 71 | 4.8 | 9.7 | 0.00 | 0.00 | 0.00 | 40 | 1007.1 |
| 20260901010636 | 25 | 114 | 3.2 | 9.7 | 0.00 | 0.00 | 0.00 | 39 | 1007.1 |
| 20260901010138 | 25 | 14 | 3.2 | 8.0 | 0.00 | 0.00 | 0.00 | 39 | 1007.1 |
| 20260901005632 | 25 | 65 | 6.4 | 9.7 | 0.00 | 0.00 | 0.00 | 40 | 1007.1 |
| 20260901005136 | 25 | 71 | 6.4 | 9.7 | 0.00 | 0.00 | 0.00 | 40 | 1007.1 |
| 20260901004631 | 25 | 77 | 6.4 | 9.7 | 0.00 | 0.00 | 0.00 | 39 | 1007.1 |
| 20260901004130 | 25 | 45 | 6.4 | 9.7 | 0.00 | 0.00 | 0.00 | 39 | 1007.1 |
| 20260901003637 | 25 | 74 | 6.4 | 9.7 | 0.00 | 0.00 | 0.00 | 40 | 1007.1 |
| 20260901003132 | 25 | 105 | 4.8 | 9.7 | 0.00 | 0.00 | 0.00 | 39 | 1007.1 |
| 20260901002924 | 25 | 39 | 3.2 | 6.4 | 0.00 | 0.00 | 0.00 | 39 | 1007.2 |
| 20260901002140 | 25 | 32 | 3.2 | 6.4 | 0.00 | 0.00 | 0.00 | 39 | 1007.2 |
| 20260901001643 | 25 | 344 | 3.2 | 9.7 | 0.00 | 0.00 | 0.00 | 39 | 1007.2 |
| 20260901001135 | 25 | 19 | 4.8 | 9.7 | 0.00 | 0.00 | 0.00 | 40 | 1007.4 |
| 20260901000620 | 25 | 340 | 4.8 | 8.0 | 0.00 | 0.00 | 0.00 | 40 | 1007.4 |
| 20260901000119 | 24 | 9 | 4.8 | 8.0 | 0.00 | 0.00 | 0.00 | 41 | 1007.4 |
| 20260831235616 | 24 | 4 | 4.8 | 6.4 | 0.00 | 0.00 | 0.00 | 43 | 1007.6 |
| 20260831235354 | 24 | 13 | 4.8 | 6.4 | 0.00 | 0.00 | 0.00 | 42 | 1007.6 |
| 20260831234609 | 25 | 340 | 4.8 | 8.0 | 0.00 | 0.00 | 0.00 | 41 | 1007.6 |
| 20260831234111 | 25 | 323 | 4.8 | 8.0 | 0.00 | 0.00 | 0.00 | 41 | 1007.6 |
| 20260831233604 | 25 | 346 | 4.8 | 8.0 | 0.00 | 0.00 | 0.00 | 40 | 1007.6 |
| 20260831233102 | 25 | 340 | 4.8 | 6.4 | 0.00 | 0.00 | 0.00 | 41 | 1007.6 |
| 20260831232606 | 24 | 329 | 4.8 | 9.7 | 0.00 | 0.00 | 0.00 | 40 | 1007.6 |
| 20260831232110 | 24 | 344 | 4.8 | 9.7 | 0.00 | 0.00 | 0.00 | 41 | 1007.6 |
| 20260831231607 | 24 | 359 | 4.8 | 8.0 | 0.00 | 0.00 | 0.00 | 41 | 1007.6 |
| 20260831231108 | 24 | 331 | 4.8 | 8.0 | 0.00 | 0.00 | 0.00 | 41 | 1007.7 |
| 20260831230602 | 24 | 359 | 4.8 | 8.0 | 0.00 | 0.00 | 0.00 | 42 | 1007.7 |
| 20260831225614 | 23 | 354 | 6.4 | 9.7 | 0.00 | 0.00 | 0.00 | 44 | 1007.9 |
| 20260831225105 | 23 | 354 | 6.4 | 9.7 | 0.00 | 0.00 | 0.00 | 43 | 1007.9 |
| 20260831224606 | 23 | 13 | 6.4 | 9.7 | 0.00 | 0.00 | 0.00 | 44 | 1007.9 |
| 20260831224102 | 23 | 359 | 6.4 | 9.7 | 0.00 | 0.00 | 0.00 | 45 | 1008.1 |
| 20260831223556 | 23 | 17 | 6.4 | 9.7 | 0.00 | 0.00 | 0.00 | 43 | 1008.1 |
| 20260831223340 | 23 | 359 | 4.8 | 8.0 | 0.00 | 0.00 | 0.00 | 43 | 1008.1 |
| 20260831222542 | 23 | 343 | 6.4 | 9.7 | 0.00 | 0.00 | 0.00 | 46 | 1008.3 |
| 20260831222047 | 23 | 352 | 8.0 | 9.7 | 0.00 | 0.00 | 0.00 | 45 | 1008.3 |
| 20260831221840 | 23 | 15 | 6.4 | 9.7 | 0.00 | 0.00 | 0.00 | 46 | 1008.3 |
| 20260831221043 | 23 | 9 | 8.0 | 11.3 | 0.00 | 0.00 | 0.00 | 44 | 1008.6 |
| 20260831220623 | 22 | 359 | 9.7 | 14.5 | 0.00 | 0.00 | 0.00 | 46 | 1008.6 |
| 20260831215539 | 22 | 16 | 9.7 | 14.5 | 0.00 | 0.00 | 0.00 | 48 | 1008.8 |
| 20260831215035 | 22 | 19 | 9.7 | 14.5 | 0.00 | 0.00 | 0.00 | 48 | 1008.8 |
| 20260831214530 | 22 | 342 | 11.3 | 14.5 | 0.00 | 0.00 | 0.00 | 49 | 1008.8 |
| 20260831214031 | 22 | 13 | 9.7 | 16.1 | 0.00 | 0.00 | 0.00 | 48 | 1009.1 |
| 20260831213531 | 22 | 14 | 9.7 | 16.1 | 0.00 | 0.00 | 0.00 | 49 | 1009.1 |
| 20260831213034 | 21 | 344 | 11.3 | 17.7 | 0.00 | 0.00 | 0.00 | 50 | 1009.1 |
| 20260831212529 | 21 | 13 | 9.7 | 17.7 | 0.00 | 0.00 | 0.00 | 52 | 1009.2 |
| 20260831212029 | 21 | 13 | 11.3 | 17.7 | 0.00 | 0.00 | 0.00 | 51 | 1009.2 |
| 20260831211537 | 21 | 339 | 12.9 | 17.7 | 0.00 | 0.00 | 0.00 | 51 | 1009.2 |
| 20260831211336 | 21 | 21 | 11.3 | 17.7 | 0.00 | 0.00 | 0.00 | 52 | 1009.3 |
| 20260831210530 | 21 | 9 | 9.7 | 16.1 | 0.00 | 0.00 | 0.00 | 54 | 1009.3 |
| 20260831210036 | 21 | 13 | 9.7 | 16.1 | 0.00 | 0.00 | 0.00 | 53 | 1009.3 |
| 20260831205535 | 21 | 30 | 9.7 | 16.1 | 0.00 | 0.00 | 0.00 | 55 | 1009.6 |
| 20260831205029 | 21 | 19 | 9.7 | 16.1 | 0.00 | 0.00 | 0.00 | 55 | 1009.6 |
| 20260831204515 | 21 | 9 | 11.3 | 17.7 | 0.00 | 0.00 | 0.00 | 55 | 1009.6 |
| 20260831204014 | 21 | 359 | 11.3 | 17.7 | 0.00 | 0.00 | 0.00 | 54 | 1009.7 |
| 20260831203507 | 21 | 334 | 9.7 | 16.1 | 0.00 | 0.00 | 0.00 | 54 | 1009.7 |
| 20260831203007 | 21 | 351 | 8.0 | 14.5 | 0.00 | 0.00 | 0.00 | 55 | 1009.7 |
| 20260831202503 | 21 | 4 | 6.4 | 11.3 | 0.00 | 0.00 | 0.00 | 55 | 1010.0 |
| 20260831202003 | 20 | 9 | 6.4 | 14.5 | 0.00 | 0.00 | 0.00 | 54 | 1010.0 |
| 20260831201506 | 20 | 4 | 8.0 | 14.5 | 0.00 | 0.00 | 0.00 | 56 | 1010.0 |